FENGYUN 1C DEB

Satellite information

Favourite Embed

Satellite Type and Status

DEBRISIN ORBIT

Key statistics

Satellite FENGYUN 1C DEB at a glance.

Uptime

9715

Days in orbit

Revolutions

≈ 13.4

Per day

Orbit

SSO

Sun Synchronous Orbit

Inclination

103.7

Latest

Satellite identification and parameters

Extended collection of information and parameters for FENGYUN 1C DEB.

Object identification

Identified? True

Debris? True

Object name: FENGYUN 1C DEB

International designator: 1999-025DBU

Object number (NORAD): 32456

Object ID (CCSDS): 32456

Country: PEOPLES REPUBLIC OF CHINA (PRC)

Current information (Y/N): Y

RCS size: SMALL

Orbital parameters

Period: 107.814 minutes

Inclination: 103.6668 deg

SMA: 7503.744 km

Apoapsis: 1410.417 km

Periapsis: 840.8 km

RAAN: 127.6101 deg

Eccentricy: 0.03795557

Argument of periapsis: 224.6734 deg

Mean anomaly: 132.3212 deg

Mean motion: 13.35628818 rev/day

Mean motion (dot): 0.00002143 rev/day2

B* drag term: 0.0028857751 1/REarth

Two-line elements (TLE)

Creation date: Dec. 13, 2025, 5:47 p.m.

Reference frame: TEME

Reference center: EARTH

Epoch: Dec. 13, 2025, 2:43 a.m. UTC

TLE line 0: 0 FENGYUN 1C DEB

TLE line 1: 1 32456U 99025DBU 25347.11355105 .00002143 00000-0 28858-2 0 9990

TLE line 2: 2 32456 103.6668 127.6101 0379556 224.6734 132.3212 13.35628818606217

Live tracking on map

Real-time ground track for satellite FENGYUN 1C DEB.

In-orbit conjunctions

A list of the most updated potential collisions computed for object FENGYUN 1C DEB.

Target Orbit TCA Probability of collision Miss distance Type
COSMOS 1531 LEO 2025-06-07 03:15:19 0.001293674 180.0 (m) PAYLOAD
THORAD AGENA D DEB SSO 2024-11-16 06:14:28 0.0001135868 748.0 (m) DEBRIS

Associated space launch

Chinese polar orbiting meteorological satellite

FENGYUN 1C DEB was lifted into orbit during the mission ‘Long March 4B | Feng Yun 1C’, on board a Long March 4B space rocket.

The launch took place on May 10, 1999, 1:33 a.m. from Launch Complex 7.

For more information about the launch, click the button.

Launch to space Long March 4B | Feng Yun 1C
Long March 4B | Feng Yun 1C

Agency: N/A

Status: Launch Successful

Launch date: May 10, 1999, 1:33 a.m. UTC

Rocket: Long March 4B

Launch pad: Launch Complex 7

Location: Taiyuan Satellite Launch Center, People's Republic of China

...

Latest news about this satellite

There are no fresh news available about this satellite. Check back as we update our databases every day.


Newsletter sign-up

Weekly statistics, charts and insights to help you stay on top of the space industry.